This is the latest recevied weather packets stored in our database for station/object SP2WPY-13. If no packets are shown the sender has not sent any weather packets the latest 10 day(s).
| Time | Temp. | Humidity | Pressure | Rain* | Wind** | Luminosity | Snow |
|---|---|---|---|---|---|---|---|
| 1777982194 | 11.11° C | 80% | 1013.6 hPa | - | - | - | - |
| 1777981875 | 11.67° C | 82% | 1013.6 hPa | - | - | - | - |
| 1777981601 | 12.22° C | 80% | 1013.6 hPa | - | - | - | - |
| 1777981281 | 12.22° C | 78% | 1013.6 hPa | - | - | - | - |
| 1777980963 | 12.78° C | 79% | 1013.6 hPa | - | - | - | - |
| 1777980688 | 12.78° C | 73% | 1013.5 hPa | - | - | - | - |
| 1777980368 | 13.33° C | 70% | 1013.5 hPa | - | - | - | - |
| 1777980094 | 13.89° C | 65% | 1013.4 hPa | - | - | - | - |
| 1777979774 | 13.89° C | 62% | 1013.4 hPa | - | - | - | - |
| 1777979500 | 13.89° C | 61% | 1013.3 hPa | - | - | - | - |
| 1777979181 | 13.89° C | 60% | 1013.3 hPa | - | - | - | - |
| 1777978861 | 13.89° C | 55% | 1013.3 hPa | - | - | - | - |
| 1777978586 | 14.44° C | 46% | 1013.2 hPa | - | - | - | - |
| 1777978267 | 15° C | 43% | 1013.2 hPa | - | - | - | - |
| 1777977994 | 15° C | 42% | 1013.2 hPa | - | - | - | - |
| 1777977674 | 15.56° C | 42% | 1013.2 hPa | - | - | - | - |
| 1777977401 | 15.56° C | 40% | 1013.1 hPa | - | - | - | - |
| 1777977081 | 16.11° C | 40% | 1013 hPa | - | - | - | - |
| 1777976760 | 16.11° C | 40% | 1012.9 hPa | - | - | - | - |
| 1777976487 | 16.11° C | 39% | 1013 hPa | - | - | - | - |
| 1777976167 | 17.22° C | 38% | 1013 hPa | - | - | - | - |
| 1777975893 | 17.22° C | 37% | 1013.1 hPa | - | - | - | - |
| 1777975574 | 17.78° C | 37% | 1013 hPa | - | - | - | - |
| 1777975299 | 18.33° C | 37% | 1013 hPa | - | - | - | - |
| 1777974980 | 18.89° C | 36% | 1013.1 hPa | - | - | - | - |
* Rain since midnight (hover to see other rain measurements)
** Current wind speed in m/s (hover to see current wind gust speed)